sat.trackr.live / text

‹ back to catalog

STARLETTE

NORAD 7646 · 1975-010A

PAYLOAD ACTIVE UNKNOWN

§ Identity

Operator
Country
FR
Launch date
1975-02-06
Launch site
FRGUI
Launch vehicle
Mass (kg)
RCS (m²)
0.17

Purposes: science

External: N2YO · Heavens-Above · Gunter

§ Orbital elements

Epoch: 2026-09-20T00:16:17.312736Z

Period
104.17 min
Inclination
49.8227°
Eccentricity
0.0205607
Mean motion
13.82351658 rev/d
Perigee alt
804.8 km
Apogee alt
1,106.3 km
Semi-major
7,333.7 km
B*
6.1063e-8
RAAN
90.3072°
Arg perigee
16.3067°
Mean anomaly
344.4315°
Rev number
60,765

§ Raw data

STARLETTE1 07646U 75010A   26263.01131149 -.00000144  00000+0  61063-7 0  99972 07646  49.8227  90.3072 0205607  16.3067 344.4315 13.82351658607651

JSON: /api/v1/satellites/7646 · /tle

For live sub-satellite position, see the globe view (requires WebGL).

§ Visibility from observer

Set your observer location to see the next 7 days of passes ≥ 10°. The values pass through the URL so the page stays shareable.

No JS? Fill the form by hand. The geolocation button needs JavaScript.